Weather History for KIKV - July, 2013

Change the Weather History Date:

Saturday, July 27, 2013

  Actual Average (KDSM) Record (KDSM)
Temperature  
Mean Temperature 60 °F 76 °F  
Max Temperature 69 °F 86 °F 106 °F (1930)
Min Temperature 51 °F 67 °F 53 °F (1971)
Degree Days  
Heating Degree Days 5 0  
Month to date heating degree days 0  
Since 1 June heating degree days 17  
Since 1 July heating degree days 0  
Cooling Degree Days 0 11  
Month to date cooling degree days 304  
Year to date cooling degree days 601  
Since 1 June cooling degree days 525  
Growing Degree Days 10 (Base 50)    
Moisture  
Dew Point 47 °F    
Average Humidity 62    
Maximum Humidity 88    
Minimum Humidity 38    
Precipitation  
Precipitation 0.00 in 0.14 in 1.40 in (2008)
Month to date precipitation 3.94  
Year to date precipitation 22.06  
Snow  
Snow 0.00 in 0.00 in - ()
Month to date snowfall 0.0  
Since 1 June snowfall 0.0  
Since 1 July snowfall 0.0  
Snow Depth -    
Sea Level Pressure  
Sea Level Pressure 30.05 in    
Wind  
Wind Speed 10 mph (NNW)    
Max Wind Speed 18 mph    
Max Gust Speed 25 mph    
Visibility 10 miles    
Events      
T = Trace of Precipitation, MM = Missing Value Source: NWS Daily Summary

Daily Weather History Graph

Daily Weather History Graph

Search for Another Location

Airport or City:

Trip Planner

Search our weather history database for the weather conditions in past years. The results will help you decide how hot, cold, wet, or windy it might be!

Date:

Astronomy

Jul. 27, 2013 Rise Set
Actual Time 6:03 AM CDT 8:37 PM CDT
Civil Twilight 5:32 AM CDT 9:08 PM CDT
Nautical Twilight 4:52 AM CDT 9:48 PM CDT
Astronomical Twilight 4:07 AM CDT 10:32 PM CDT
Moon 11:18 PM CDT (7/27) 11:50 AM CDT (7/27)
Length of Visible Light 15h 36m
Length of Day
14h 33m
Waning Gibbous, 70% of the Moon is Illuminated
Jul 27
Waning Gibbous
Jul 29
Last Quarter
Aug 6
New
Aug 14
First Quarter
Aug 20
Full

Hourly Weather History & Observations

Time (CDT) Temp. Dew Point Humidity Pressure Visibility Wind Dir Wind Speed Gust Speed Precip Events Conditions
12:15 AM 62.6 °F 53.6 °F 72% 30.06 in 10.0 mi NNW 11.5 mph 17.3 mph N/A   Clear
12:35 AM 62.6 °F 53.6 °F 72% 30.06 in 10.0 mi NNW 8.1 mph - N/A   Clear
12:55 AM 60.8 °F 53.6 °F 77% 30.06 in 10.0 mi NNW 6.9 mph - N/A   Clear
1:15 AM 60.8 °F 53.6 °F 77% 30.06 in 10.0 mi NNW 9.2 mph 15.0 mph N/A   Clear
1:35 AM 60.8 °F 51.8 °F 72% 30.06 in 10.0 mi NNW 8.1 mph - N/A   Clear
1:55 AM 59.0 °F 51.8 °F 77% 30.06 in 10.0 mi NNW 10.4 mph - N/A   Clear
2:15 AM 59.0 °F 51.8 °F 77% 30.06 in 10.0 mi NNW 9.2 mph - N/A   Clear
2:35 AM 59.0 °F 51.8 °F 77% 30.05 in 10.0 mi NNW 10.4 mph - N/A   Clear
2:55 AM 59.0 °F 51.8 °F 77% 30.06 in 10.0 mi NNW 9.2 mph - N/A   Clear
3:15 AM 57.2 °F 51.8 °F 82% 30.06 in 10.0 mi NNW 10.4 mph - N/A   Clear
3:35 AM 57.2 °F 51.8 °F 82% 30.05 in 10.0 mi NNW 10.4 mph - N/A   Clear
3:55 AM 57.2 °F 51.8 °F 82% 30.06 in 10.0 mi NNW 10.4 mph - N/A   Clear
4:15 AM 57.2 °F 51.8 °F 82% 30.06 in 10.0 mi North 9.2 mph - N/A   Clear
4:35 AM 55.4 °F 51.8 °F 88% 30.06 in 10.0 mi North 10.4 mph - N/A   Clear
4:55 AM 55.4 °F 51.8 °F 88% 30.06 in 10.0 mi NNW 8.1 mph - N/A   Clear
5:15 AM 55.4 °F 51.8 °F 88% 30.06 in 10.0 mi NNW 8.1 mph - N/A   Clear
5:35 AM 55.4 °F 50.0 °F 82% 30.06 in 10.0 mi NNW 9.2 mph - N/A   Clear
5:55 AM 53.6 °F 50.0 °F 88% 30.06 in 10.0 mi North 6.9 mph 12.7 mph N/A   Clear
6:15 AM 55.4 °F 50.0 °F 82% 30.07 in 10.0 mi North 8.1 mph - N/A   Clear
6:35 AM 53.6 °F 50.0 °F 88% 30.07 in 10.0 mi North 5.8 mph - N/A   Clear
6:55 AM 55.4 °F 50.0 °F 82% 30.07 in 10.0 mi North 8.1 mph - N/A   Clear
7:15 AM 55.4 °F 50.0 °F 82% 30.08 in 10.0 mi North 8.1 mph - N/A   Clear
7:35 AM 57.2 °F 50.0 °F 77% 30.09 in 10.0 mi NNW 11.5 mph - N/A   Clear
7:55 AM 57.2 °F 50.0 °F 77% 30.09 in 10.0 mi NNW 9.2 mph - N/A   Scattered Clouds
8:15 AM 57.2 °F 50.0 °F 77% 30.10 in 10.0 mi North 8.1 mph 15.0 mph N/A   Scattered Clouds
8:35 AM 59.0 °F 50.0 °F 72% 30.10 in 10.0 mi North 6.9 mph - N/A   Clear
8:55 AM 60.8 °F 48.2 °F 63% 30.10 in 10.0 mi NW 12.7 mph - N/A   Clear
9:15 AM 60.8 °F 48.2 °F 63% 30.10 in 10.0 mi North 8.1 mph - N/A   Clear
9:35 AM 60.8 °F 46.4 °F 59% 30.09 in 10.0 mi North 9.2 mph 16.1 mph N/A   Clear
9:55 AM 62.6 °F 46.4 °F 55% 30.09 in 10.0 mi NNW 12.7 mph - N/A   Clear
10:15 AM 62.6 °F 44.6 °F 52% 30.09 in 10.0 mi NNW 12.7 mph - N/A   Clear
10:35 AM 64.4 °F 44.6 °F 49% 30.09 in 10.0 mi NW 11.5 mph 24.2 mph N/A   Clear
10:55 AM 66.2 °F 46.4 °F 49% 30.09 in 10.0 mi NNW 12.7 mph 19.6 mph N/A   Clear
11:15 AM 64.4 °F 46.4 °F 52% 30.08 in 10.0 mi NW 11.5 mph 19.6 mph N/A   Scattered Clouds
11:35 AM 64.4 °F 44.6 °F 49% 30.08 in 10.0 mi NNW 13.8 mph - N/A   Mostly Cloudy
11:55 AM 64.4 °F 46.4 °F 52% 30.07 in 10.0 mi North 9.2 mph 23.0 mph N/A   Overcast
12:15 PM 64.4 °F 46.4 °F 52% 30.07 in 10.0 mi NW 12.7 mph - N/A   Mostly Cloudy
12:35 PM 64.4 °F 44.6 °F 49% 30.06 in 10.0 mi NNW 11.5 mph 20.7 mph N/A   Overcast
12:55 PM 64.4 °F 44.6 °F 49% 30.06 in 10.0 mi NW 18.4 mph 25.3 mph N/A   Mostly Cloudy
1:15 PM 66.2 °F 44.6 °F 46% 30.05 in 10.0 mi WNW 15.0 mph 23.0 mph N/A   Scattered Clouds
1:35 PM 66.2 °F 44.6 °F 46% 30.05 in 10.0 mi NW 16.1 mph 24.2 mph N/A   Mostly Cloudy
1:55 PM 66.2 °F 44.6 °F 46% 30.05 in 10.0 mi NW 16.1 mph 24.2 mph N/A   Mostly Cloudy
2:15 PM 68.0 °F 44.6 °F 43% 30.04 in 10.0 mi NW 15.0 mph - N/A   Scattered Clouds
2:35 PM 68.0 °F 44.6 °F 43% 30.04 in 10.0 mi WNW 13.8 mph 23.0 mph N/A   Scattered Clouds
2:55 PM 69.8 °F 42.8 °F 38% 30.03 in 10.0 mi NNW 16.1 mph 25.3 mph N/A   Mostly Cloudy
3:15 PM 68.0 °F 42.8 °F 40% 30.03 in 10.0 mi NNW 17.3 mph - N/A   Scattered Clouds
3:35 PM 69.8 °F 42.8 °F 38% 30.03 in 10.0 mi NW 12.7 mph 21.9 mph N/A   Clear
3:55 PM 68.0 °F 42.8 °F 40% 30.02 in 10.0 mi North 13.8 mph 24.2 mph N/A   Partly Cloudy
4:15 PM 69.8 °F 42.8 °F 38% 30.02 in 10.0 mi NNW 13.8 mph - N/A   Scattered Clouds
4:35 PM 69.8 °F 42.8 °F 38% 30.02 in 10.0 mi NNW 13.8 mph 21.9 mph N/A   Mostly Cloudy
4:55 PM 69.8 °F 42.8 °F 38% 30.01 in 10.0 mi NW 13.8 mph 20.7 mph N/A   Mostly Cloudy
5:15 PM 69.8 °F 44.6 °F 40% 30.01 in 10.0 mi North 8.1 mph 15.0 mph N/A   Mostly Cloudy
5:35 PM 69.8 °F 42.8 °F 38% 30.01 in 10.0 mi NW 10.4 mph 17.3 mph N/A   Overcast
5:55 PM 68.0 °F 42.8 °F 40% 30.00 in 10.0 mi NNW 8.1 mph 16.1 mph N/A   Scattered Clouds
6:15 PM 69.8 °F 42.8 °F 38% 30.00 in 10.0 mi NNW 12.7 mph - N/A   Partly Cloudy
6:35 PM 69.8 °F 44.6 °F 40% 30.00 in 10.0 mi NNW 11.5 mph 17.3 mph N/A   Scattered Clouds
6:55 PM 68.0 °F 42.8 °F 40% 30.00 in 10.0 mi WNW 9.2 mph - N/A   Mostly Cloudy
7:15 PM 68.0 °F 42.8 °F 40% 30.00 in 10.0 mi NNW 11.5 mph - N/A   Partly Cloudy
7:35 PM 68.0 °F 42.8 °F 40% 30.00 in 10.0 mi NNW 11.5 mph - N/A   Clear
7:55 PM 66.2 °F 42.8 °F 43% 30.00 in 10.0 mi NNW 9.2 mph - N/A   Scattered Clouds
8:15 PM 64.4 °F 44.6 °F 49% 30.00 in 10.0 mi North 5.8 mph - N/A   Scattered Clouds
8:35 PM 64.4 °F 44.6 °F 49% 30.00 in 10.0 mi North 3.5 mph - N/A   Scattered Clouds
8:55 PM 62.6 °F 44.6 °F 52% 30.00 in 10.0 mi NNW 4.6 mph - N/A   Mostly Cloudy
9:15 PM 59.0 °F 48.2 °F 67% 30.01 in 10.0 mi Calm Calm - N/A   Partly Cloudy
9:35 PM 57.2 °F 46.4 °F 67% 30.01 in 10.0 mi WNW 3.5 mph - N/A   Clear
9:55 PM 57.2 °F 46.4 °F 67% 30.01 in 10.0 mi WNW 3.5 mph - N/A   Clear
10:15 PM 53.6 °F 46.4 °F 77% 30.02 in 10.0 mi West 4.6 mph - N/A   Clear
10:35 PM 53.6 °F 48.2 °F 82% 30.02 in 10.0 mi Calm Calm - N/A   Clear
10:55 PM 53.6 °F 46.4 °F 77% 30.01 in 10.0 mi West 3.5 mph - N/A   Clear
11:15 PM 53.6 °F 48.2 °F 82% 30.01 in 10.0 mi Calm Calm - N/A   Clear
11:35 PM 51.8 °F 46.4 °F 82% 30.01 in 10.0 mi WNW 4.6 mph - N/A   Clear
11:55 PM 51.8 °F 46.4 °F 82% 30.01 in 10.0 mi WNW 4.6 mph - N/A   Clear